DELTA 1 DEB

Satellite information

Favourite Embed

Satellite Type and Status

DEBRISIN ORBIT

Key statistics

Satellite DELTA 1 DEB at a glance.

Uptime

18448

Days in orbit

Revolutions

≈ 13.0

Per day

Orbit

SSO

Sun Synchronous Orbit

Inclination

99.7

Latest

Satellite identification and parameters

Extended collection of information and parameters for DELTA 1 DEB.

Object identification

Identified? True

Debris? True

Object name: DELTA 1 DEB

International designator: 1975-052FT

Object number (NORAD): 21498

Object ID (CCSDS): 21498

Country: UNITED STATES OF AMERICA (US)

Current information (Y/N): Y

RCS size: SMALL

Orbital parameters

Period: 111.183 minutes

Inclination: 99.7051 deg

SMA: 7659.256 km

Apoapsis: 1482.089 km

Periapsis: 1080.153 km

RAAN: 280.0765 deg

Eccentricy: 0.02623859

Argument of periapsis: 119.7093 deg

Mean anomaly: 56.4324 deg

Mean motion: 12.95158465 rev/day

Mean motion (dot): 0.00000277 rev/day2

B* drag term: 0.00095248005 1/REarth

Two-line elements (TLE)

Creation date: Dec. 14, 2025, 3:07 a.m.

Reference frame: TEME

Reference center: EARTH

Epoch: Dec. 13, 2025, 2:21 p.m. UTC

TLE line 0: 0 DELTA 1 DEB

TLE line 1: 1 21498U 75052FT 25347.59824418 .00000277 00000-0 95248-3 0 9992

TLE line 2: 2 21498 99.7051 280.0765 0262386 119.7093 56.4324 12.95158465632115

Live tracking on map

Real-time ground track for satellite DELTA 1 DEB.

In-orbit conjunctions

A list of the most updated potential collisions computed for object DELTA 1 DEB.

Target Orbit TCA Probability of collision Miss distance Type
COSMOS 1055 LEO 2025-07-12 19:45:43 0.0001344351 423.0 (m) PAYLOAD
COSMOS 2143 DEB LEO 2025-03-23 05:59:01 0.0002238262 34.0 (m) DEBRIS

Associated space launch

Experimental meteorological satellite

DELTA 1 DEB was lifted into orbit during the mission ‘Delta 2910 | Nimbus 6’, on board a Delta 2910 space rocket.

The launch took place on June 12, 1975, 8:12 a.m. from Space Launch Complex 2W.

For more information about the launch, click the button.

Launch to space Delta 2910 | Nimbus 6
Delta 2910 | Nimbus 6

Agency: N/A

Status: Launch Successful

Launch date: June 12, 1975, 8:12 a.m. UTC

Rocket: Delta 2910

Launch pad: Space Launch Complex 2W

Location: Vandenberg SFB, CA, USA

...

Latest news about this satellite

There are no fresh news available about this satellite. Check back as we update our databases every day.


Newsletter sign-up

Weekly statistics, charts and insights to help you stay on top of the space industry.